{"data":{"norad_id":57294,"epoch":"2026-09-20T22:00:03.000096Z","epoch_age_seconds":88214,"freshness":"FRESH","line1":"1 57294U 23096E   26263.91670139  .00110444  00000+0  18099-2 0  9994","line2":"2 57294  43.0009 196.3298 0001638 270.9380 122.0930 15.51375208  5784","mean_motion":15.51375208,"eccentricity":0.0001638,"inclination_deg":43.0009,"raan_deg":196.3298,"arg_perigee_deg":270.938,"mean_anomaly_deg":122.093,"bstar":0.0018099,"rev_number":578,"period_min":92.820872254135,"perigee_km":411.59762239182,"apogee_km":413.82230385693,"semimajor_km":6790.8469631244,"source":"CELESTRAK","updated_at":"2026-09-21T09:00:33.594562Z"}}